TimeEST,TemperatureF,Dew PointF,Humidity,Sea Level PressureIn,VisibilityMPH,Wind Direction,Wind SpeedMPH,Gust SpeedMPH,PrecipitationIn,Events,Conditions,WindDirDegrees,DateUTC
12:51 AM,36.0,26.1,67,30.25,10.0,Calm,Calm,-,N/A,,Clear,0,2012-11-22 05:51:00
1:51 AM,33.8,24.8,70,30.21,10.0,Calm,Calm,-,N/A,,Clear,0,2012-11-22 06:51:00
2:51 AM,32.0,24.1,73,30.25,10.0,Calm,Calm,-,N/A,,Clear,0,2012-11-22 07:51:00
3:51 AM,30.9,24.1,76,30.25,10.0,Calm,Calm,-,N/A,,Clear,0,2012-11-22 08:51:00
4:51 AM,30.9,24.1,76,30.26,10.0,Calm,Calm,-,N/A,,Partly Cloudy,0,2012-11-22 09:51:00
5:51 AM,30.0,24.1,79,30.27,10.0,Calm,Calm,-,N/A,,Scattered Clouds,0,2012-11-22 10:51:00
6:51 AM,30.0,24.1,79,30.27,10.0,Calm,Calm,-,N/A,,Scattered Clouds,0,2012-11-22 11:51:00
7:51 AM,30.0,25.0,82,30.29,10.0,Calm,Calm,-,N/A,,Scattered Clouds,0,2012-11-22 12:51:00
8:51 AM,35.1,27.0,72,30.28,10.0,Calm,Calm,-,N/A,,Partly Cloudy,0,2012-11-22 13:51:00
9:51 AM,42.1,30.0,62,30.27,10.0,Calm,Calm,-,N/A,,Partly Cloudy,0,2012-11-22 14:51:00
10:51 AM,50.0,30.2,47,30.22,10.0,SSE,3.5,-,N/A,,Partly Cloudy,150,2012-11-22 15:51:00
11:51 AM,55.0,30.9,40,30.23,10.0,South,3.5,-,N/A,,Partly Cloudy,170,2012-11-22 16:51:00
12:51 PM,57.9,28.9,33,30.20,10.0,Variable,6.9,-,N/A,,Partly Cloudy,0,2012-11-22 17:51:00
1:51 PM,59.0,28.9,32,30.18,10.0,South,9.2,-,N/A,,Partly Cloudy,170,2012-11-22 18:51:00
2:51 PM,60.1,28.9,31,30.17,10.0,South,6.9,-,N/A,,Partly Cloudy,180,2012-11-22 19:51:00
3:51 PM,60.1,30.0,32,30.15,10.0,SSE,8.1,-,N/A,,Partly Cloudy,160,2012-11-22 20:51:00
4:51 PM,57.9,28.9,33,30.15,10.0,South,3.5,-,N/A,,Partly Cloudy,190,2012-11-22 21:51:00
5:51 PM,53.1,28.9,40,30.15,10.0,South,3.5,-,N/A,,Partly Cloudy,180,2012-11-22 22:51:00
6:51 PM,50.0,28.9,44,30.14,10.0,Calm,Calm,-,N/A,,Partly Cloudy,0,2012-11-22 23:51:00
7:51 PM,45.0,28.9,53,30.14,10.0,Calm,Calm,-,N/A,,Partly Cloudy,0,2012-11-23 00:51:00
8:51 PM,48.0,28.9,48,30.11,10.0,South,4.6,-,N/A,,Partly Cloudy,190,2012-11-23 01:51:00
9:51 PM,46.0,28.9,51,30.09,10.0,South,5.8,-,N/A,,Mostly Cloudy,170,2012-11-23 02:51:00
10:51 PM,45.0,28.9,53,30.07,10.0,SSE,3.5,-,N/A,,Overcast,160,2012-11-23 03:51:00
11:51 PM,44.1,28.9,55,30.06,10.0,Calm,Calm,-,N/A,,Overcast,0,2012-11-23 04:51:00